Wheaton NDB, MN

7:18 AM CST on December 16, 2017 (GMT -0600)
Wheaton Municipal

Weather History for KETH - October, 2013

Change the Weather History Date:

Monday, October 14, 2013

  Actual Average Record
Temperature  
Mean Temperature 48 °F -  
Max Temperature 51 °F 62 °F 88 °F (1962)
Min Temperature 46 °F 37 °F 26 °F (1961)
Degree Days  
Heating Degree Days 16    
Moisture  
Dew Point 43 °F    
Average Humidity 84    
Maximum Humidity 100    
Minimum Humidity 62    
Precipitation  
Precipitation 1.57 in - - ()
Sea Level Pressure  
Sea Level Pressure 30.15 in    
Wind  
Wind Speed 10 mph (East)    
Max Wind Speed 23 mph    
Max Gust Speed 29 mph    
Visibility 9 miles    
Events Rain    
Averages and records for this station are not official NWS values.
T = Trace of Precipitation, MM = Missing Value Source: NWS Daily Summary

Daily Weather History Graph

Daily Weather History Graph

Search for Another Location

Airport or City:

Trip Planner

Search our weather history database for the weather conditions in past years. The results will help you decide how hot, cold, wet, or windy it might be!

Date:

Astronomy

Oct. 14, 2013 Rise Set
Actual Time 7:41 AM CDT 6:41 PM CDT
Civil Twilight 7:11 AM CDT 7:11 PM CDT
Nautical Twilight 6:37 AM CDT 7:45 PM CDT
Astronomical Twilight 6:02 AM CDT 8:20 PM CDT
Moon 4:23 PM CDT (10/14) 2:46 AM CDT (10/14)
Length of Visible Light 11h 59m
Length of Day
10h 59m
Waxing Gibbous, 79% of the Moon is Illuminated
Oct 14
Waxing Gibbous
Oct 18
Full
Oct 26
Last Quarter
Nov 3
New
Nov 9
First Quarter

Hourly Weather History & Observations

Time (CDT) Temp. Windchill Dew Point Humidity Pressure Visibility Wind Dir Wind Speed Gust Speed Precip Events Conditions
12:14 AM 46.4 °F 43.5 °F 39.2 °F 76% 30.35 in 10.0 mi East 5.8 mph - N/A   Mostly Cloudy
12:34 AM 46.4 °F 44.3 °F 39.2 °F 76% 30.35 in 10.0 mi East 4.6 mph - N/A   Mostly Cloudy
12:54 AM 46.4 °F 45.2 °F 39.2 °F 76% 30.36 in 10.0 mi East 3.5 mph - N/A   Mostly Cloudy
1:14 AM 46.4 °F 45.2 °F 41.0 °F 81% 30.36 in 10.0 mi East 3.5 mph - N/A   Mostly Cloudy
1:35 AM 46.4 °F 43.5 °F 41.0 °F 81% 30.36 in 10.0 mi East 5.8 mph - N/A   Scattered Clouds
1:54 AM 46.4 °F 43.5 °F 41.0 °F 81% 30.36 in 10.0 mi ESE 5.8 mph - N/A   Mostly Cloudy
2:15 AM 48.2 °F - 41.0 °F 76% 30.34 in 10.0 mi ESE 5.8 mph - N/A   Overcast
2:34 AM 48.2 °F - 39.2 °F 71% 30.34 in 10.0 mi ESE 5.8 mph - N/A   Overcast
2:54 AM 48.2 °F - 39.2 °F 71% 30.34 in 10.0 mi ESE 8.1 mph - N/A   Overcast
3:14 AM 48.2 °F - 41.0 °F 76% 30.33 in 10.0 mi ESE 8.1 mph - N/A   Overcast
3:34 AM 50.0 °F - 41.0 °F 71% 30.32 in 10.0 mi ESE 8.1 mph - N/A   Overcast
3:55 AM 50.0 °F - 39.2 °F 66% 30.32 in 10.0 mi East 6.9 mph - N/A   Overcast
4:15 AM 50.0 °F - 39.2 °F 66% 30.31 in 10.0 mi East 6.9 mph - N/A   Overcast
4:35 AM 50.0 °F - 39.2 °F 66% 30.30 in 10.0 mi ESE 8.1 mph - N/A   Overcast
4:54 AM 51.8 °F - 39.2 °F 62% 30.29 in 10.0 mi East 8.1 mph - N/A   Overcast
5:14 AM 51.8 °F - 39.2 °F 62% 30.28 in 10.0 mi ESE 9.2 mph - N/A   Overcast
5:34 AM 51.8 °F - 39.2 °F 62% 30.27 in 10.0 mi East 10.4 mph - N/A   Overcast
5:54 AM 51.8 °F - 39.2 °F 62% 30.27 in 10.0 mi ESE 9.2 mph - N/A   Overcast
6:14 AM 51.8 °F - 39.2 °F 62% 30.27 in 10.0 mi ESE 10.4 mph - N/A   Mostly Cloudy
6:35 AM 51.8 °F - 39.2 °F 62% 30.27 in 10.0 mi ESE 8.1 mph - N/A   Overcast
6:55 AM 51.8 °F - 39.2 °F 62% 30.27 in 10.0 mi ESE 11.5 mph 16.1 mph N/A   Overcast
7:14 AM 51.8 °F - 39.2 °F 62% 30.26 in 10.0 mi ESE 12.7 mph 17.3 mph N/A   Overcast
7:34 AM 51.8 °F - 39.2 °F 62% 30.26 in 10.0 mi ESE 11.5 mph - N/A   Mostly Cloudy
7:55 AM 50.0 °F - 39.2 °F 66% 30.25 in 10.0 mi ESE 13.8 mph - N/A   Light Drizzle
8:14 AM 50.0 °F - 39.2 °F 66% 30.27 in 10.0 mi SE 11.5 mph - N/A Rain Light Rain
8:34 AM 48.2 °F - 39.2 °F 71% 30.27 in 10.0 mi SE 10.4 mph - N/A   Light Drizzle
8:54 AM 48.2 °F - 39.2 °F 71% 30.27 in 10.0 mi SE 12.7 mph - N/A Rain Light Rain
9:14 AM 48.2 °F - 42.8 °F 82% 30.27 in 10.0 mi SE 10.4 mph - 0.02 in Rain Rain
9:34 AM 46.4 °F 41.1 °F 42.8 °F 87% 30.26 in 10.0 mi ESE 11.5 mph - 0.08 in Rain Rain
9:54 AM 46.4 °F 41.1 °F 42.8 °F 87% 30.25 in 10.0 mi East 11.5 mph - 0.14 in Rain Rain
10:34 AM 46.4 °F 40.4 °F 42.8 °F 87% 30.22 in 10.0 mi East 13.8 mph - 0.04 in Rain Light Rain
10:54 AM 46.4 °F 41.1 °F 42.8 °F 87% 30.22 in 10.0 mi ESE 11.5 mph - 0.05 in Rain Rain
11:14 AM 46.4 °F 40.4 °F 44.6 °F 93% 30.22 in 10.0 mi ESE 13.8 mph - 0.01 in Rain Light Rain
11:35 AM 46.4 °F 41.9 °F 44.6 °F 93% 30.22 in 5.0 mi ESE 9.2 mph - 0.07 in Rain Rain
11:55 AM 46.4 °F 41.9 °F 44.6 °F 93% 30.21 in 10.0 mi ESE 9.2 mph - 0.10 in Rain Rain
12:15 PM 46.4 °F 41.9 °F 44.6 °F 93% 30.20 in 7.0 mi East 9.2 mph - 0.06 in Rain Light Rain
12:35 PM 46.4 °F 41.5 °F 44.6 °F 93% 30.20 in 5.0 mi East 10.4 mph - 0.16 in   Overcast
12:54 PM 46.4 °F 41.1 °F 44.6 °F 93% 30.17 in 7.0 mi East 11.5 mph - 0.24 in Rain Rain
1:14 PM 46.4 °F 40.7 °F 44.6 °F 93% 30.15 in 10.0 mi East 12.7 mph - 0.04 in Rain Light Rain
1:35 PM 46.4 °F 40.4 °F 44.6 °F 93% 30.12 in 10.0 mi East 13.8 mph - 0.07 in Rain Light Rain
1:54 PM 46.4 °F 39.8 °F 44.6 °F 93% 30.11 in 10.0 mi East 16.1 mph 23.0 mph 0.12 in Rain Light Rain
2:16 PM 46.4 °F 41.1 °F 44.6 °F 93% 30.12 in 10.0 mi East 11.5 mph 18.4 mph 0.02 in Rain Light Rain
2:35 PM 46.4 °F 40.1 °F 44.6 °F 93% 30.10 in 10.0 mi East 15.0 mph 20.7 mph 0.04 in Rain Light Rain
2:55 PM 46.4 °F 40.1 °F 44.6 °F 93% 30.08 in 10.0 mi East 15.0 mph - 0.09 in Rain Light Rain
3:15 PM 46.4 °F 40.1 °F 46.4 °F 100% 30.07 in 10.0 mi East 15.0 mph 19.6 mph 0.02 in Rain Light Rain
3:35 PM 48.2 °F - 44.6 °F 87% 30.06 in 10.0 mi East 15.0 mph 20.7 mph 0.04 in Rain Light Rain
3:55 PM 48.2 °F - 44.6 °F 87% 30.05 in 10.0 mi East 18.4 mph - 0.08 in Rain Light Rain
4:14 PM 48.2 °F - 44.6 °F 87% 30.03 in 7.0 mi East 17.3 mph 24.2 mph 0.01 in Rain Light Rain
4:34 PM 48.2 °F - 44.6 °F 87% 30.02 in 5.0 mi East 23.0 mph 28.8 mph 0.02 in Rain Light Rain
4:55 PM 46.4 °F 39.0 °F 44.6 °F 93% 30.02 in 4.0 mi East 19.6 mph 28.8 mph 0.07 in Rain Light Rain
5:14 PM 46.4 °F 39.2 °F 44.6 °F 93% 30.01 in 4.0 mi East 18.4 mph 26.5 mph 0.03 in   Overcast
5:35 PM 46.4 °F 38.7 °F 44.6 °F 93% 30.01 in 4.0 mi East 20.7 mph 27.6 mph 0.05 in Rain Light Rain
5:54 PM 46.4 °F 39.5 °F 44.6 °F 93% 30.00 in 5.0 mi East 17.3 mph 24.2 mph 0.07 in Rain Light Rain
6:15 PM 46.4 °F 39.8 °F 44.6 °F 93% 30.01 in 10.0 mi East 16.1 mph 24.2 mph 0.04 in Rain Light Rain
6:35 PM 46.4 °F 40.4 °F 44.6 °F 93% 30.02 in 10.0 mi East 13.8 mph 21.9 mph 0.09 in Rain Light Rain
6:54 PM 46.4 °F 39.8 °F 44.6 °F 93% 30.02 in 10.0 mi East 16.1 mph 21.9 mph 0.12 in Rain Light Rain
7:15 PM 46.4 °F 40.1 °F 44.6 °F 93% 30.01 in 10.0 mi ENE 15.0 mph 21.9 mph 0.04 in Rain Light Rain
7:34 PM 46.4 °F 39.8 °F 44.6 °F 93% 29.99 in 10.0 mi ENE 16.1 mph 21.9 mph 0.08 in Rain Light Rain
7:54 PM 46.4 °F 39.2 °F 44.6 °F 93% 29.99 in 10.0 mi ENE 18.4 mph - 0.10 in Rain Light Rain
8:15 PM 46.4 °F 40.7 °F 44.6 °F 93% 29.99 in 10.0 mi ENE 12.7 mph 18.4 mph 0.04 in Rain Light Rain
8:34 PM 46.4 °F 40.1 °F 44.6 °F 93% 29.99 in 10.0 mi East 15.0 mph - 0.08 in Rain Light Rain
8:54 PM 46.4 °F 40.1 °F 44.6 °F 93% 29.97 in 10.0 mi ENE 15.0 mph 21.9 mph 0.09 in Rain Light Rain
9:14 PM 46.4 °F 40.7 °F 44.6 °F 93% 29.97 in 5.0 mi East 12.7 mph 21.9 mph 0.01 in Rain Light Rain
9:34 PM 46.4 °F 39.2 °F 44.6 °F 93% 29.96 in 4.0 mi ENE 18.4 mph 25.3 mph 0.01 in Rain Light Rain
9:54 PM 46.4 °F 40.4 °F 46.4 °F 100% 29.96 in 4.0 mi ENE 13.8 mph 19.6 mph 0.02 in Rain Rain
10:14 PM 46.4 °F 40.4 °F 46.4 °F 100% 29.94 in 4.0 mi ENE 13.8 mph 20.7 mph 0.02 in Rain Light Rain
10:34 PM 46.4 °F 40.7 °F 46.4 °F 100% 29.94 in 4.0 mi ENE 12.7 mph - 0.03 in Rain Light Rain
10:55 PM 46.4 °F 40.7 °F 46.4 °F 100% 29.94 in 7.0 mi ENE 12.7 mph 20.7 mph 0.08 in Rain Light Rain
11:15 PM 46.4 °F 40.7 °F 46.4 °F 100% 29.90 in 10.0 mi ENE 12.7 mph 19.6 mph 0.05 in Rain Light Rain
11:35 PM 46.4 °F 40.4 °F 46.4 °F 100% 29.90 in 4.0 mi NE 13.8 mph 19.6 mph 0.15 in Rain Light Rain
11:54 PM 46.4 °F 39.5 °F 46.4 °F 100% 29.87 in 10.0 mi NE 17.3 mph 24.2 mph 0.20 in Rain Light Rain